When you browse on this site, cookies collect data to enhance your experience and personalize the content and advertising you see.
Visit our Privacy Policy to learn more. By continuing to use the site, you agree to this use of cookies and data.
  • In Switzerland
  • List of Countries
  • For 7 days
  • Water Temperature
  • Satellite Maps
  • Weather Map
  • Weather Widgets
  • user-avatar
    Login

    Hourly Weather Zavalovo

    Today, 16 July, Tuesday

    Time Temperature Precipitation Wind Pressure Humidity
    00:00 +14°C° 0.1 mm 1 mps 744 mmHg 90%
    01:00 +14°C° 0.1 mm 1 mps 744 mmHg 91%
    02:00 +14°C° 0 mm 1 mps 744 mmHg 92%
    03:00 +15°C° 0.2 mm 1 mps 744 mmHg 92%
    04:00 +15°C° 0.2 mm 2 mps 744 mmHg 92%
    05:00 +15°C° 0.2 mm 2 mps 744 mmHg 93%
    06:00 +16°C° 0.1 mm 2 mps 744 mmHg 90%
    07:00 +17°C° 0.1 mm 2 mps 744 mmHg 88%
    08:00 +19°C° 0 mm 2 mps 744 mmHg 86%
    09:00 +20°C° 1.2 mm 2 mps 744 mmHg 83%
    10:00 +21°C° 1.2 mm 2 mps 743 mmHg 79%
    11:00 +23°C° 1.2 mm 2 mps 743 mmHg 76%
    12:00 +23°C° 0.9 mm 2 mps 743 mmHg 76%
    13:00 +23°C° 0.9 mm 2 mps 742 mmHg 76%
    14:00 +23°C° 0.9 mm 2 mps 742 mmHg 77%
    15:00 +21°C° 1 mm 2 mps 742 mmHg 79%
    16:00 +21°C° 1 mm 2 mps 742 mmHg 81%
    17:00 +21°C° 1 mm 3 mps 742 mmHg 84%
    18:00 +20°C° 0.4 mm 3 mps 742 mmHg 85%
    19:00 +19°C° 0.4 mm 3 mps 742 mmHg 87%
    20:00 +18°C° 0.4 mm 4 mps 742 mmHg 88%
    21:00 +17°C° 0.1 mm 3 mps 742 mmHg 91%
    22:00 +17°C° 0.1 mm 3 mps 742 mmHg 93%
    23:00 +16°C° 0.1 mm 3 mps 742 mmHg 95%

    Tomorrow, 17 July, Wednesday

    Time Temperature Precipitation Wind Pressure Humidity
    00:00 +16°C° 0.1 mm 2 mps 742 mmHg 94%
    01:00 +16°C° 0.1 mm 2 mps 742 mmHg 94%
    02:00 +16°C° 0.1 mm 2 mps 742 mmHg 93%
    03:00 +16°C° 0.4 mm 2 mps 742 mmHg 94%
    04:00 +16°C° 0.4 mm 2 mps 741 mmHg 95%
    05:00 +16°C° 0.4 mm 3 mps 741 mmHg 96%
    06:00 +16°C° 0.3 mm 3 mps 741 mmHg 96%
    07:00 +16°C° 0.3 mm 3 mps 741 mmHg 96%
    08:00 +16°C° 0.3 mm 3 mps 741 mmHg 96%
    09:00 +17°C° 0.2 mm 3 mps 741 mmHg 94%
    10:00 +17°C° 0.2 mm 3 mps 741 mmHg 93%
    11:00 +18°C° 0.2 mm 3 mps 741 mmHg 92%
    12:00 +19°C° 0.2 mm 3 mps 741 mmHg 88%
    13:00 +20°C° 0.2 mm 3 mps 740 mmHg 84%
    14:00 +21°C° 0.2 mm 3 mps 740 mmHg 80%
    15:00 +20°C° 0.8 mm 3 mps 740 mmHg 81%
    16:00 +20°C° 0.8 mm 3 mps 740 mmHg 83%
    17:00 +20°C° 0.8 mm 3 mps 740 mmHg 85%
    18:00 +19°C° 0.9 mm 3 mps 740 mmHg 87%
    19:00 +18°C° 0.9 mm 2 mps 740 mmHg 89%
    20:00 +17°C° 0.9 mm 2 mps 740 mmHg 92%
    21:00 +16°C° 0.1 mm 2 mps 740 mmHg 92%
    22:00 +15°C° 0.1 mm 2 mps 740 mmHg 93%
    23:00 +15°C° 0.1 mm 2 mps 740 mmHg 93%

    Day after tomorrow, 18 July, Thursday

    Time Temperature Precipitation Wind Pressure Humidity
    00:00 +14°C° 0 mm 2 mps 740 mmHg 94%
    01:00 +14°C° 0 mm 2 mps 740 mmHg 94%
    02:00 +13°C° 0 mm 2 mps 740 mmHg 94%
    03:00 +13°C° 0 mm 2 mps 740 mmHg 95%
    04:00 +14°C° 0 mm 2 mps 740 mmHg 95%
    05:00 +14°C° 0 mm 2 mps 740 mmHg 95%
    06:00 +14°C° 0 mm 3 mps 740 mmHg 91%
    07:00 +17°C° 0 mm 3 mps 740 mmHg 87%
    08:00 +19°C° 0 mm 3 mps 740 mmHg 83%
    09:00 +19°C° 0.3 mm 4 mps 740 mmHg 79%
    10:00 +20°C° 0.3 mm 4 mps 740 mmHg 75%
    11:00 +21°C° 0.3 mm 5 mps 740 mmHg 71%
    12:00 +21°C° 0.4 mm 5 mps 740 mmHg 71%
    13:00 +21°C° 0.4 mm 5 mps 740 mmHg 72%
    14:00 +21°C° 0.4 mm 5 mps 740 mmHg 73%
    15:00 +21°C° 0.3 mm 4 mps 741 mmHg 75%
    16:00 +20°C° 0.3 mm 4 mps 741 mmHg 76%
    17:00 +20°C° 0.3 mm 4 mps 741 mmHg 78%
    18:00 +19°C° 0.3 mm 4 mps 741 mmHg 83%
    19:00 +17°C° 0.3 mm 3 mps 741 mmHg 87%
    20:00 +16°C° 0.3 mm 3 mps 741 mmHg 92%
    21:00 +14°C° 0 mm 3 mps 741 mmHg 93%
    22:00 +13°C° 0 mm 3 mps 742 mmHg 94%
    23:00 +13°C° 0 mm 3 mps 742 mmHg 95%

    19 July, Friday

    Time Temperature Precipitation Wind Pressure Humidity
    00:00 +13°C° 0 mm 3 mps 742 mmHg 96%
    01:00 +12°C° 0 mm 3 mps 742 mmHg 96%
    02:00 +12°C° 0 mm 3 mps 742 mmHg 96%
    03:00 +12°C° 0 mm 4 mps 742 mmHg 96%
    04:00 +12°C° 0 mm 4 mps 742 mmHg 96%
    05:00 +13°C° 0 mm 4 mps 742 mmHg 96%
    06:00 +14°C° 0 mm 5 mps 742 mmHg 93%
    07:00 +15°C° 0 mm 5 mps 742 mmHg 90%
    08:00 +16°C° 0 mm 5 mps 742 mmHg 87%
    09:00 +17°C° 0.1 mm 5 mps 743 mmHg 85%
    10:00 +17°C° 0.1 mm 5 mps 743 mmHg 83%
    11:00 +19°C° 0.1 mm 5 mps 743 mmHg 81%
    12:00 +19°C° 0.1 mm 5 mps 743 mmHg 80%
    13:00 +19°C° 0.1 mm 5 mps 743 mmHg 79%
    14:00 +20°C° 0.1 mm 5 mps 743 mmHg 77%
    15:00 +20°C° 0.1 mm 5 mps 743 mmHg 77%
    16:00 +20°C° 0.1 mm 4 mps 743 mmHg 77%
    17:00 +21°C° 0.1 mm 4 mps 743 mmHg 76%
    18:00 +19°C° 0.2 mm 4 mps 743 mmHg 82%
    19:00 +18°C° 0.2 mm 4 mps 744 mmHg 87%
    20:00 +16°C° 0.2 mm 3 mps 744 mmHg 92%
    21:00 +16°C° 0 mm 3 mps 744 mmHg 94%
    22:00 +14°C° 0 mm 4 mps 744 mmHg 95%
    23:00 +14°C° 0 mm 4 mps 745 mmHg 96%

    20 July, Saturday

    Time Temperature Precipitation Wind Pressure Humidity
    00:00 +13°C° 0 mm 4 mps 745 mmHg 96%
    01:00 +13°C° 0 mm 4 mps 745 mmHg 97%
    02:00 +13°C° 0 mm 4 mps 745 mmHg 97%
    03:00 +13°C° 0 mm 4 mps 745 mmHg 96%
    04:00 +13°C° 0 mm 4 mps 746 mmHg 96%
    05:00 +13°C° 0 mm 4 mps 746 mmHg 95%
    06:00 +14°C° 0 mm 5 mps 746 mmHg 91%
    07:00 +15°C° 0 mm 5 mps 746 mmHg 88%
    08:00 +16°C° 0 mm 6 mps 746 mmHg 84%
    09:00 +19°C° 0 mm 6 mps 747 mmHg 78%
    10:00 +20°C° 0 mm 6 mps 747 mmHg 72%
    11:00 +21°C° 0 mm 6 mps 747 mmHg 66%
    12:00 +22°C° 0.2 mm 6 mps 747 mmHg 65%
    13:00 +22°C° 0.2 mm 6 mps 747 mmHg 64%
    14:00 +23°C° 0.2 mm 6 mps 747 mmHg 63%
    15:00 +23°C° 0.2 mm 5 mps 747 mmHg 66%
    16:00 +22°C° 0.2 mm 5 mps 747 mmHg 69%
    17:00 +22°C° 0.2 mm 4 mps 747 mmHg 72%
    18:00 +20°C° 0.1 mm 3 mps 748 mmHg 77%
    19:00 +19°C° 0.1 mm 3 mps 748 mmHg 81%
    20:00 +17°C° 0.1 mm 3 mps 748 mmHg 86%
    21:00 +16°C° 0 mm 3 mps 748 mmHg 88%
    22:00 +16°C° 0 mm 3 mps 748 mmHg 90%
    23:00 +14°C° 0 mm 3 mps 749 mmHg 93%

    21 July, Sunday

    Time Temperature Precipitation Wind Pressure Humidity
    00:00 +14°C° 0 mm 3 mps 749 mmHg 93%
    01:00 +13°C° 0 mm 3 mps 749 mmHg 93%
    02:00 +13°C° 0 mm 3 mps 748 mmHg 94%
    03:00 +13°C° 0 mm 3 mps 749 mmHg 93%
    04:00 +13°C° 0 mm 3 mps 749 mmHg 93%
    05:00 +14°C° 0 mm 3 mps 749 mmHg 92%
    06:00 +15°C° 0 mm 4 mps 749 mmHg 87%
    07:00 +18°C° 0 mm 4 mps 749 mmHg 81%
    08:00 +20°C° 0 mm 4 mps 749 mmHg 76%
    09:00 +21°C° 0 mm 4 mps 749 mmHg 72%
    10:00 +22°C° 0 mm 5 mps 749 mmHg 69%
    11:00 +23°C° 0 mm 5 mps 749 mmHg 65%
    12:00 +23°C° 0.2 mm 5 mps 749 mmHg 65%
    13:00 +23°C° 0.2 mm 5 mps 749 mmHg 65%
    14:00 +25°C° 0.2 mm 5 mps 749 mmHg 65%
    15:00 +23°C° 0.4 mm 4 mps 749 mmHg 68%
    16:00 +23°C° 0.4 mm 4 mps 749 mmHg 72%
    17:00 +24°C° 0.4 mm 3 mps 748 mmHg 75%
    18:00 +21°C° 0.5 mm 3 mps 749 mmHg 80%
    19:00 +19°C° 0.5 mm 3 mps 749 mmHg 84%
    20:00 +18°C° 0.5 mm 2 mps 749 mmHg 89%
    21:00 +17°C° 0 mm 2 mps 749 mmHg 90%
    22:00 +16°C° 0 mm 2 mps 749 mmHg 91%
    23:00 +16°C° 0 mm 2 mps 749 mmHg 93%
    Show more